Regional Weather Roundup
Issued by NWS

Home | Current Version | Previous Version | Graphics & Text | Print | Product List | Glossary Off
Versions: 1 2 3 4 5 6 7 8 9 10 11 12 13 14 15 16 17 18 19 20 21 22 23 24 25 26 27 28 29 30 31 32 33 34 35 36 37 38 39 40 41 42 43 44 45 46 47 48 49 50

000
ASUS43 KMKX 280011
RWRWI

WISCONSIN REGIONAL WEATHER ROUNDUP
NATIONAL WEATHER SERVICE MILWAUKEE/SULLIVAN WI
700 PM CDT SUN MAY 27 2018

NOTE: "FAIR" INDICATES FEW OR NO CLOUDS BELOW 12,000 FEET WITH NO
SIGNIFICANT WEATHER AND/OR OBSTRUCTIONS TO VISIBILITY.

WIZ001-002-006>008-014>016-023>028-280100-
NORTHWEST WISCONSIN

CITY           SKY/WX    TMP DP  RH WIND       PRES   REMARKS
SUPERIOR ARPT  FAIR      60  51  72 NE5       29.84S
6HR MIN TEMP:  59; 6HR MAX TEMP:  87;

ASHLAND        FAIR      74  61  63 CALM      29.84R
6HR MIN TEMP:  70; 6HR MAX TEMP:  89;

HAYWARD        FAIR      83  62  49 CALM      29.86R HX  84
6HR MIN TEMP:  82; 6HR MAX TEMP:  89; 6HR PCP:  0.01;

SIREN          FAIR      82  61  48 NE6       29.83S HX  83
6HR MIN TEMP:  76; 6HR MAX TEMP:  87;

CUMBERLAND     FAIR      81  59  47 S6        29.84F HX  81
RICE LAKE      FAIR      85  59  41 CALM      29.85F HX  85
6HR MIN TEMP:  85; 6HR MAX TEMP:  92;

CHETEK         FAIR      83  63  49 CALM      29.84S HX  84
6HR MIN TEMP:  83; 6HR MAX TEMP:  93;

LADYSMITH      FAIR      85  61  43 NW3       29.87S HX  85
6HR MIN TEMP:  85; 6HR MAX TEMP:  90;

EAU CLAIRE     FAIR      87  62  43 SW5       29.81F HX  87
6HR MIN TEMP:  87; 6HR MAX TEMP:  95;

MENOMONIE      FAIR      86  63  45 CALM      29.83S HX  87
6HR MIN TEMP:  86; 6HR MAX TEMP:  91;

NEW RICHMOND   FAIR      86  61  42 CALM      29.82F HX  86
6HR MIN TEMP:  82; 6HR MAX TEMP:  89;

OSCEOLA        FAIR      88  60  39 S8        29.83F HX  87
6HR MIN TEMP:  82; 6HR MAX TEMP:  89;

$$

WIZ003>005-009-010-017-018-280100-
NORTH CENTRAL WISCONSIN

CITY           SKY/WX    TMP DP  RH WIND       PRES   REMARKS
MANITOWISH WTR FAIR      83  61  47 NE3       29.88S HX  84
6HR MIN TEMP:  82; 6HR MAX TEMP:  87;

ARBOR VITAE    FAIR      85  53  33 CALM      29.87F HX  83
6HR MIN TEMP:  83; 6HR MAX TEMP:  88;

WOODRUFF       FAIR      85  53  33 CALM      29.87F HX  83
6HR MIN TEMP:  83; 6HR MAX TEMP:  88;

RHINELANDER    FAIR      91  53  27 NW3       29.88R HX  88
6HR MIN TEMP:  89; 6HR MAX TEMP:  93;

EAGLE RIVER    FAIR      85  49  29 CALM      29.88S HX  82
6HR MIN TEMP:  83; 6HR MAX TEMP:  87;

LAND O LAKES   NOT AVBL
PHILLIPS       FAIR      85  57  38 CALM      29.87R HX  84
6HR MIN TEMP:  84; 6HR MAX TEMP:  87;

TOMAHAWK       FAIR      85  54  34 CALM      29.87S HX  83
6HR MIN TEMP:  85; 6HR MAX TEMP:  89;

MEDFORD        FAIR      86  55  34 W3        29.87R HX  84
6HR MIN TEMP:  84; 6HR MAX TEMP:  90;

MERRILL        FAIR      89  54  30 CALM      29.86R HX  87
6HR MIN TEMP:  88; 6HR MAX TEMP:  92;

$$

WIZ029-030-035-036-043>047-280100-
CENTRAL WISCONSIN

CITY           SKY/WX    TMP DP  RH WIND       PRES   REMARKS
WAUSAU         FAIR      89  54  30 SW3       29.84R HX  87
6HR MIN TEMP:  89; 6HR MAX TEMP:  93;

MOSINEE        MOSUNNY   84  64  51 VRB3      29.87R HX  86
MARSHFIELD     FAIR      87  58  37 SW5       29.85R HX  86
6HR MIN TEMP:  86; 6HR MAX TEMP:  93;

STEVENS POINT  FAIR      89  53  29 W3        29.85R HX  87
6HR MIN TEMP:  88; 6HR MAX TEMP:  91;

WAUPACA        FAIR      91  54  27 CALM      29.83R HX  89
6HR MIN TEMP:  91; 6HR MAX TEMP:  98;

WAUTOMA        FAIR      87  63  44 CALM      29.83S HX  88
6HR MIN TEMP:  87; 6HR MAX TEMP:  96;

WISC RAPIDS    FAIR      91  54  28 W3        29.85R HX  89
6HR MIN TEMP:  91; 6HR MAX TEMP:  98;

CAMP DOUGLAS   FAIR      88  61  39 CALM      29.84R HX  88
6HR MIN TEMP:  87; 6HR MAX TEMP:  96;

$$

WIZ011>013-019>022-031-037>040-048>050-280100-
NORTHEAST WISCONSIN

CITY           SKY/WX    TMP DP  RH WIND       PRES   REMARKS
ANTIGO         FAIR      86  56  36 W6        29.87R HX  84
6HR MIN TEMP:  86; 6HR MAX TEMP:  90;

SHAWANO        FAIR      88  67  50 CALM      29.82R HX  91
OCONTO         FAIR      77  61  57 S5        29.84R
6HR MIN TEMP:  77; 6HR MAX TEMP:  87;

STURGEON BAY   FAIR      71  62  73 SE9       29.84F
6HR MIN TEMP:  71; 6HR MAX TEMP:  85;

GREEN BAY      FAIR      83  63  50 SE7       29.82S HX  84
6HR MIN TEMP:  83; 6HR MAX TEMP:  97;

MANITOWOC      NOT AVBL
APPLETON       MOSUNNY   84  52  32 MISG      29.81F HX  82
CLINTONVILLE   FAIR      91  51  25 CALM      29.83R HX  88
6HR MIN TEMP:  87; 6HR MAX TEMP:  95;

OSHKOSH        FAIR      82  67  60 CALM      29.81F HX  84
6HR MIN TEMP:  82; 6HR MAX TEMP:  94;

$$

WIZ032>034-041-042-053>061-280100-
SOUTHWEST WISCONSIN

CITY           SKY/WX    TMP DP  RH WIND       PRES   REMARKS
LA CROSSE      FAIR      91  60  35 S6        29.81F HX  90
6HR MIN TEMP:  91; 6HR MAX TEMP:  98;

SPARTA         FAIR      89  60  37 CALM      29.84S HX  88
6HR MIN TEMP:  88; 6HR MAX TEMP:  96;

VIROQUA        FAIR      90  55  30 CALM      29.87S HX  88
6HR MIN TEMP:  90; 6HR MAX TEMP:  95;

BOSCOBEL       FAIR      89  71  55 CALM      29.83S HX  95
6HR MIN TEMP:  89; 6HR MAX TEMP:  98;

PRAIRIE DU CHI FAIR      91  58  33 E5        29.83S HX  89
6HR MIN TEMP:  90; 6HR MAX TEMP:  93;

PLATTEVILLE    FAIR      92  58  32 E6        29.86F HX  90
6HR MIN TEMP:  89; 6HR MAX TEMP:  94;

$$

WIZ056-057-062-063-064-067-068-280100-
SOUTH CENTRAL WISCONSIN

CITY           SKY/WX    TMP DP  RH WIND       PRES   REMARKS
REEDSBURG      FAIR      87  62  43 CALM      29.83F HX  87
6HR MIN TEMP:  86; 6HR MAX TEMP:  95;

BARABOO/DELLS  FAIR      89  54  29 E5        29.84F HX  87
6HR MIN TEMP:  89; 6HR MAX TEMP:  96;

LONE ROCK      FAIR      89  61  38 CALM      29.82F HX  89
6HR MIN TEMP:  89; 6HR MAX TEMP:  97;

MINERAL POINT  FAIR      91  61  35 NE5       29.87S HX  91
MADISON        PTSUNNY   89  67  47 E3        29.84S HX  92
6HR MIN TEMP:  88; 6HR MAX TEMP:  95;

MIDDLETON      FAIR      90  64  41 NE5       29.85F HX  91
6HR MIN TEMP:  90; 6HR MAX TEMP:  96;

WATERTOWN      FAIR      83  69  62 S3        29.85S HX  86
6HR MIN TEMP:  80; 6HR MAX TEMP:  94;

MONROE         FAIR      90  59  35 N3        29.86F HX  89
JANESVILLE     MOSUNNY   91  63  38 CALM      29.84F HX  92
$$

WIZ051-052-058>065-066-070>072-280100-
SOUTHEAST WISCONSIN

CITY           SKY/WX    TMP DP  RH WIND       PRES   REMARKS
MILWAUKEE      PTSUNNY   76  65  68 SE8       29.86F
6HR MIN TEMP:  73; 6HR MAX TEMP:  95;

WAUKESHA       SUNNY     79  64  61 E5        29.88R HX  81
MILWAUKEE/TIMM SUNNY     75  63  64 CALM      29.87F
RACINE         PTSUNNY   80  65  59 S3        29.88S HX  82
6HR MIN TEMP:  80; 6HR MAX TEMP:  91;

BURLINGTON     FAIR      82  63  51 SE5       29.86F HX  83
6HR MIN TEMP:  67; 6HR MAX TEMP:  94;

KENOSHA        FAIR      83  63  50 SE6       29.86S HX  84
6HR MIN TEMP:  83; 6HR MAX TEMP:  94;

FOND DU LAC    FAIR      85  60  42 E6        29.81F HX  85
6HR MIN TEMP:  85; 6HR MAX TEMP:  94;

SHEBOYGAN      FAIR      81  64  56 SE6       29.84F HX  82
6HR MIN TEMP:  81; 6HR MAX TEMP:  94;

WEST BEND      FAIR      81  68  65 CALM      29.86S HX  83
JUNEAU         FAIR      84  68  57 SE5       29.86S HX  87
6HR MIN TEMP:  84; 6HR MAX TEMP:  93;

$$

LSZ147-162-280100-
LAKE SUPERIOR

STATION/POSITION TIME  TEMP    WIND        PRES    WAVE
                       AIR SEA DIR/SP/G            HT/PER
                 (UTC) (F)     (DEG/KT/KT) (MB)    (FT/S)
W MID LAKE BUOY  2250   42 37   CALM  /  2 1011.0R   0
DEVILS ISLAND    0000   56      90/  5/  7 1010.0F
SAXON HARBOR     2340   72      CALM  /  2 1009.5S
$$

LMZ867-665-643>646-280100-
LAKE MICHIGAN

STATION/POSITION TIME  TEMP    WIND        PRES    WAVE
                       AIR SEA DIR/SP/G            HT/PER
                 (UTC) (F)     (DEG/KT/KT) (MB)    (FT/S)
N MID LAKE BUOY  2350   43 38  140/  4



USA.gov is the U.S. government's official web portal to all federal, state and local government web resources and services.